Location: Bacharowice
(49.9333°N, 19.5833°E)
Time: 13:01:25
(UTC+00:00)

USA 305 - Pass Details

Date: 21 September 2021
Orbit: 547 x 588 km, 54.0° (Epoch: 03 October)

Event Time Altitude Azimuth Distance (km) Brightness Sun altitude
Rises 17:07:15 0° 261° (W) 2,729 8.2 -4.9°
Reaches altitude 10° 17:09:30 10° 265° (W) 1,841 7.2 -5.3°
Maximum altitude 17:13:38 59° 345° (NNW) 656 3.4 -5.9°
Drops below altitude 10° 17:17:50 10° 66° (ENE) 1,870 5.0 -6.6°
Enters shadow 17:18:55 - 68° (ENE) 2,296 5.5 -6.8°
